User: anonymous   Login
Location: El Bakhil
(32.7726°N, 5.5387°W)
Time: 18:13:13
(UTC+00:00)
Language:

SO-50 - Orbit

View from above orbital plane
View from above orbital plane
View from above satellite
View from above satellite

Ground track
Ground track

The orbit data is extracted from the following two-line orbital elements,

1 27607U 02058C   21210.45044756  .00000049  00000-0  27527-4 0  9998
2 27607  64.5536 209.9198 0045741   7.4248 352.7521 14.75769607   701
Epoch (UTC): 29 July 2021 10:48:38
Eccentricity: 0.0045741
inclination: 64.5536°
perigee height: 610 km
apogee height: 675 km
right ascension of ascending node: 209.9198°
argument of perigee: 7.4248°
revolutions per day: 14.75769607
mean anomaly at epoch: 352.7521°
orbit number at epoch: 70

The dashed part of the orbit path shows where the satellite is in the earth's shadow,  

DLR